TimeEST,TemperatureF,Dew PointF,Humidity,Sea Level PressureIn,VisibilityMPH,Wind Direction,Wind SpeedMPH,Gust SpeedMPH,PrecipitationIn,Events,Conditions,WindDirDegrees,DateUTC
12:15 AM,8.6,5.0,85,30.32,10.0,Calm,Calm,-,N/A,,Mostly Cloudy,0,2013-02-11 05:15:00
12:35 AM,8.6,5.0,85,30.31,10.0,Calm,Calm,-,N/A,,Partly Cloudy,0,2013-02-11 05:35:00
12:55 AM,10.4,6.8,85,30.29,10.0,Calm,Calm,-,N/A,,Clear,0,2013-02-11 05:55:00
1:15 AM,10.4,3.2,73,30.30,10.0,Calm,Calm,-,N/A,,Clear,0,2013-02-11 06:15:00
1:35 AM,8.6,5.0,85,30.29,10.0,Calm,Calm,-,N/A,,Clear,0,2013-02-11 06:35:00
1:55 AM,8.6,5.0,85,30.28,10.0,Calm,Calm,-,N/A,,Clear,0,2013-02-11 06:55:00
2:15 AM,10.4,6.8,85,30.27,10.0,Calm,Calm,-,N/A,,Clear,0,2013-02-11 07:15:00
2:35 AM,10.4,5.0,79,30.26,9.0,Calm,Calm,-,N/A,,Clear,0,2013-02-11 07:35:00
2:55 AM,10.4,5.0,79,30.26,10.0,Calm,Calm,-,N/A,,Clear,0,2013-02-11 07:55:00
3:15 AM,10.4,6.8,85,30.25,10.0,Calm,Calm,-,N/A,,Clear,0,2013-02-11 08:15:00
3:35 AM,10.4,6.8,85,30.25,10.0,Calm,Calm,-,N/A,,Scattered Clouds,0,2013-02-11 08:35:00
3:55 AM,10.4,6.8,85,30.22,10.0,Calm,Calm,-,N/A,,Mostly Cloudy,0,2013-02-11 08:55:00
4:15 AM,12.2,6.8,79,30.22,10.0,Calm,Calm,-,N/A,,Scattered Clouds,0,2013-02-11 09:15:00
4:35 AM,12.2,6.8,79,30.21,10.0,Calm,Calm,-,N/A,,Partly Cloudy,0,2013-02-11 09:35:00
4:55 AM,12.2,6.8,79,30.20,10.0,Calm,Calm,-,N/A,,Partly Cloudy,0,2013-02-11 09:55:00
5:15 AM,12.2,6.8,79,30.20,10.0,Calm,Calm,-,N/A,,Clear,0,2013-02-11 10:15:00
5:35 AM,12.2,6.8,79,30.20,10.0,Calm,Calm,-,N/A,,Clear,0,2013-02-11 10:35:00
5:55 AM,14.0,6.8,73,30.19,10.0,Calm,Calm,-,N/A,,Clear,0,2013-02-11 10:55:00
6:15 AM,14.0,8.6,79,30.18,10.0,Calm,Calm,-,N/A,,Clear,0,2013-02-11 11:15:00
6:35 AM,15.8,8.6,73,30.15,10.0,Calm,Calm,-,N/A,,Partly Cloudy,0,2013-02-11 11:35:00
6:55 AM,15.8,10.4,79,30.15,10.0,Calm,Calm,-,N/A,,Mostly Cloudy,0,2013-02-11 11:55:00
7:15 AM,15.8,10.4,79,30.15,9.0,Calm,Calm,-,N/A,,Mostly Cloudy,0,2013-02-11 12:15:00
7:35 AM,15.8,10.4,79,30.13,1.8,Calm,Calm,-,N/A,,Overcast,0,2013-02-11 12:35:00
7:55 AM,15.8,12.2,86,30.12,2.5,Calm,Calm,-,N/A,,Overcast,0,2013-02-11 12:55:00
8:15 AM,17.6,12.2,79,30.11,0.8,NNE,3.5,-,N/A,,Overcast,20,2013-02-11 13:15:00
8:35 AM,17.6,14.0,86,30.09,1.8,NNE,4.6,-,N/A,,Overcast,20,2013-02-11 13:35:00
8:55 AM,19.4,15.8,86,30.08,3.0,NNE,4.6,-,N/A,,Overcast,30,2013-02-11 13:55:00
9:15 AM,19.4,15.8,86,30.07,2.0,Calm,Calm,-,N/A,,Overcast,0,2013-02-11 14:15:00
9:35 AM,19.4,17.6,93,30.06,0.8,NE,3.5,-,N/A,,Overcast,40,2013-02-11 14:35:00
9:55 AM,21.2,17.6,86,30.04,1.2,Calm,Calm,-,N/A,,Overcast,0,2013-02-11 14:55:00
10:15 AM,21.2,19.4,93,30.02,1.0,North,3.5,-,N/A,,Overcast,350,2013-02-11 15:15:00
10:35 AM,21.2,19.4,93,30.00,1.5,Calm,Calm,-,N/A,,Overcast,0,2013-02-11 15:35:00
10:55 AM,23.0,19.4,86,29.97,2.5,Calm,Calm,-,N/A,,Overcast,0,2013-02-11 15:55:00
11:15 AM,24.8,21.2,86,29.95,1.5,Calm,Calm,-,N/A,,Overcast,0,2013-02-11 16:15:00
11:35 AM,24.8,23.0,93,29.94,1.8,Calm,Calm,-,N/A,,Overcast,0,2013-02-11 16:35:00
11:55 AM,26.6,26.6,100,29.91,1.8,North,3.5,-,N/A,,Overcast,360,2013-02-11 16:55:00
12:15 PM,28.4,26.6,93,29.90,1.5,Calm,Calm,-,0.02,,Overcast,0,2013-02-11 17:15:00
12:35 PM,28.4,28.4,100,29.86,1.5,Calm,Calm,-,0.05,,Overcast,0,2013-02-11 17:35:00
12:55 PM,30.2,28.4,93,29.85,1.5,Calm,Calm,-,0.07,,Overcast,0,2013-02-11 17:55:00
1:15 PM,30.2,28.4,93,29.83,1.2,Calm,Calm,-,0.02,,Overcast,0,2013-02-11 18:15:00
1:35 PM,30.2,28.4,93,29.83,0.8,Calm,Calm,-,0.03,,Overcast,0,2013-02-11 18:35:00
1:55 PM,30.2,28.4,93,29.81,0.8,Calm,Calm,-,0.05,,Overcast,0,2013-02-11 18:55:00
2:15 PM,32.0,30.2,93,29.80,1.0,Calm,Calm,-,0.01,,Overcast,0,2013-02-11 19:15:00
2:35 PM,32.0,30.2,93,29.80,0.8,Calm,Calm,-,0.02,,Overcast,0,2013-02-11 19:35:00
2:55 PM,32.0,30.2,93,29.78,1.0,Calm,Calm,-,0.03,,Overcast,0,2013-02-11 19:55:00
3:15 PM,33.8,30.2,87,29.76,5.0,Calm,Calm,-,0.01,,Overcast,0,2013-02-11 20:15:00
3:35 PM,33.8,30.2,87,29.74,1.8,Calm,Calm,-,0.02,,Overcast,0,2013-02-11 20:35:00
3:55 PM,33.8,30.2,87,29.73,1.8,Calm,Calm,-,0.03,,Overcast,0,2013-02-11 20:55:00
4:15 PM,33.8,30.2,87,29.72,0.8,Calm,Calm,-,N/A,,Overcast,0,2013-02-11 21:15:00
4:35 PM,33.8,30.2,87,29.72,0.5,Calm,Calm,-,0.01,,Overcast,0,2013-02-11 21:35:00
4:55 PM,33.8,30.2,87,29.70,0.2,Calm,Calm,-,0.01,,Overcast,0,2013-02-11 21:55:00
5:55 PM,33.8,30.2,87,29.69,0.5,Calm,Calm,-,0.01,,Overcast,0,2013-02-11 22:55:00
6:15 PM,33.8,30.2,87,29.68,0.5,Calm,Calm,-,N/A,,Overcast,0,2013-02-11 23:15:00
6:35 PM,32.0,30.2,93,29.68,0.5,Calm,Calm,-,0.01,,Overcast,0,2013-02-11 23:35:00
6:55 PM,32.0,30.2,93,29.67,0.5,Calm,Calm,-,0.01,,Overcast,0,2013-02-11 23:55:00
7:15 PM,32.0,30.2,93,29.67,0.5,Calm,Calm,-,N/A,,Overcast,0,2013-02-12 00:15:00
7:35 PM,32.0,30.2,93,29.65,0.5,South,3.5,-,N/A,,Overcast,180,2013-02-12 00:35:00
7:55 PM,32.0,30.2,93,29.65,0.5,Calm,Calm,-,0.01,,Overcast,0,2013-02-12 00:55:00
8:15 PM,33.8,30.2,87,29.65,0.5,Calm,Calm,-,N/A,,Overcast,0,2013-02-12 01:15:00
8:35 PM,32.0,30.2,93,29.67,0.5,Calm,Calm,-,N/A,,Overcast,0,2013-02-12 01:35:00
8:55 PM,33.8,30.2,87,29.66,1.0,Calm,Calm,-,N/A,,Overcast,0,2013-02-12 01:55:00
9:15 PM,33.8,30.2,87,29.65,0.8,SSW,4.6,-,N/A,,Overcast,210,2013-02-12 02:15:00
9:35 PM,33.8,30.2,87,29.65,0.8,Calm,Calm,-,N/A,,Overcast,0,2013-02-12 02:35:00
9:55 PM,33.8,30.2,87,29.64,0.8,Calm,Calm,-,N/A,,Overcast,0,2013-02-12 02:55:00
10:15 PM,33.8,30.2,87,29.64,0.5,Calm,Calm,-,N/A,,Overcast,0,2013-02-12 03:15:00
10:35 PM,32.0,30.2,93,29.65,0.5,Calm,Calm,-,N/A,,Overcast,0,2013-02-12 03:35:00
11:15 PM,33.8,32.0,93,29.65,0.5,SSW,3.5,-,N/A,,Overcast,200,2013-02-12 04:15:00
11:35 PM,33.8,30.2,87,29.65,2.0,Calm,Calm,-,N/A,,Overcast,0,2013-02-12 04:35:00
11:55 PM,33.8,30.2,87,29.64,2.5,SSW,4.6,-,N/A,,Overcast,200,2013-02-12 04:55:00